Content
SEND FEEDBACK

Daily
Averages
Monthly
Summary
United States of America

ST. LOUIS, MISSOURI


Home > North America > United States > Missouri
Elevation: 163 meters     Latitude: 38 45N     Longitude: 090 22W

WEATHER
 
SELECT A DAY
Number of Records: 196,364;   Date Range: 1/1/95 - 7/26/14
 
SHARE

PRINT THIS DATA

[ ← Previous Day ]
WEATHER ALMANAC - 19 FEBRUARY, 2013
[ Next Day → ]
[ °F ]   °C
Weather ElementAverageHighLow
Temperature-1.6 °C2.2 °C (2:54 pm)-5 °C (10:54 pm)
Dewpoint-10.3 °C-6.1 °C (1:54 am)-13.3 °C (3:54 pm)
Humidity52.9 %67 % (1:54 am)33 % (3:54 pm)
Barometer1021.7 hPa1027.4 hPa (9:54 pm)1015.2 hPa (1:54 am)
Wind Speed21.9 km/h37 km/h (3:54 pm)
Wind Gust50.1 km/h (10:54 am)
Weather ElementAverage
Visibility15.4 km
Wind DirectionWNW (288.7 °)

Weather ElementTotal
Precipitation---
Heating Degree Days19.7 (Base 18.3)
Averaged from 23 records on 19 February, 2013
WEATHER CONDITIONS BREAKOUT
WIND DIRECTION BREAKOUT
WEATHER BY HOUR - 19 FEBRUARY, 2013
[ °F ]   °C
Local TimeTemperatureDewpointHumidityBarometerVisibilityWind DirectionWind SpeedGust SpeedPrecipitationEventsConditions
1:54 AM-0.6 °C-6.1 °C67 %1015.2 hPa16.1 kmWest (270°)20.4 km/hClear
2:54 AM-1.7 °C-7.2 °C67 %1015.6 hPa16.1 kmWest (260°)22.2 km/h35.2 km/hClear
3:54 AM-2.2 °C-7.8 °C66 %1015.9 hPa16.1 kmWest (260°)20.4 km/hClear
4:54 AM-2.2 °C-8.9 °C61 %1016.6 hPa16.1 kmWest (270°)22.2 km/h33.3 km/hClear
5:54 AM-2.8 °C-10 °C58 %1017.6 hPa16.1 kmWest (270°)24.1 km/h46.3 km/hClear
6:54 AM-3.9 °C-10.6 °C60 %1018.6 hPa16.1 kmWNW (290°)22.2 km/hClear
7:54 AM-3.3 °C-10.6 °C58 %1019.6 hPa16.1 kmWest (280°)20.4 km/hScattered Clouds
8:54 AM-2.2 °C-10 °C56 %1020.3 hPa16.1 kmWNW (300°)31.5 km/h42.6 km/hScattered Clouds
9:54 AM-1.1 °C-8.9 °C56 %1021 hPa16.1 kmWNW (290°)25.9 km/h42.6 km/hScattered Clouds
10:54 AM-0.6 °C-10 °C50 %1022 hPa16.1 kmWNW (290°)25.9 km/h50.1 km/hClear
11:13 AM0 °C-9 °C51 %1021 hPa2.4 kmWNW (300°)29.6 km/h40.7 km/hClear
11:28 AM0 °C-9 °C51 %1021 hPa16.1 kmWNW (300°)25.9 km/hClear
12:54 PM0.6 °C-10 °C46 %1022.4 hPa16.1 kmNW (310°)25.9 km/h40.7 km/hPartly Cloudy
1:54 PM1.7 °C-8.9 °C46 %1022.4 hPa16.1 kmNW (320°)29.6 km/h38.9 km/hPartly Cloudy
2:54 PM2.2 °C-11.7 °C36 %1022.7 hPa16.1 kmWNW (290°)27.8 km/h44.4 km/hPartly Cloudy
3:54 PM1.7 °C-13.3 °C33 %1023.4 hPa16.1 kmNW (310°)37 km/h50.1 km/hClear
4:54 PM0.6 °C-13.3 °C35 %1023.7 hPa16.1 kmWNW (290°)24.1 km/h38.9 km/hClear
6:54 PM-2.2 °C-11.7 °C49 %1025.1 hPa16.1 kmNW (310°)11.1 km/hClear
7:54 PM-2.8 °C-11.7 °C51 %1025.7 hPa16.1 kmWNW (300°)11.1 km/hClear
8:54 PM-3.3 °C-11.7 °C53 %1026.4 hPa16.1 kmWest (280°)13 km/hClear
9:54 PM-4.4 °C-11.7 °C57 %1027.4 hPa16.1 kmWest (270°)9.3 km/hClear
10:54 PM-5 °C-11.7 °C60 %1027.1 hPa16.1 kmWNW (290°)11.1 km/hClear
11:54 PM-4 °C-13 °C50 %1026.4 hPa16.1 kmWNW (290°)13 km/hClear
Hourly data recorded from KSUS, located 0 kilometers away from St. Louis, Missouri







STORIES FROM OUR PARTNERS